Omak, WA

7:59 PM PDT on August 23, 2019 (GMT -0700)
Omak

Weather History for KOMK - July, 2019

Change the Weather History Date:

Monday, July 22, 2019

  Actual Average Record
Temperature  
Mean Temperature 76 °F 74 °F  
Max Temperature 95 °F 90 °F 108 °F (2006)
Min Temperature 56 °F 59 °F 40 °F (1945)
Degree Days  
Heating Degree Days 0 0  
Month to date heating degree days 0 11  
Since 1 June heating degree days 56 80  
Since 1 July heating degree days 0 11  
Cooling Degree Days 11 10  
Month to date cooling degree days 149 163  
Year to date cooling degree days 299 270  
Since 1 June cooling degree days 271 247  
Growing Degree Days 25 (Base 50)    
Moisture  
Dew Point 43 °F    
Average Humidity 33    
Maximum Humidity 51    
Minimum Humidity 15    
Precipitation  
Precipitation T in 0.02 in 0.53 in (1955)
Month to date precipitation 0.15 0.61  
Year to date precipitation 5.03 8.59  
Sea Level Pressure  
Sea Level Pressure 29.91 in    
Wind  
Wind Speed 8 mph (NW)    
Max Wind Speed 18 mph    
Max Gust Speed 24 mph    
Visibility 10 miles    
Events Rain , Thunderstorm    
T = Trace of Precipitation, MM = Missing Value Source: NWS Daily Summary

Daily Weather History Graph

Daily Weather History Graph

Search for Another Location

Airport or City:

Astronomy

Jul. 22, 2019 Rise Set
Actual Time 5:20 AM PDT 8:48 PM PDT
Civil Twilight 4:41 AM PDT 9:26 PM PDT
Nautical Twilight 3:49 AM PDT 10:18 PM PDT
Astronomical Twilight 2:40 AM PDT 11:26 PM PDT
Moon 11:45 PM PDT (7/22) 11:04 AM PDT (7/22)
Length of Visible Light 16h 45m
Length of Day
15h 28m
Waning Gibbous, 71% of the Moon is Illuminated
Jul 22
Waning Gibbous
Jul 24
Last Quarter
Jul 31
New
Aug 7
First Quarter
Aug 15
Full

Hourly Weather History & Observations

Time (PDT) Temp. Heat Index Dew Point Humidity Pressure Visibility Wind Dir Wind Speed Gust Speed Precip Events Conditions
12:53 AM 62.1 °F - 39.0 °F 43% 29.96 in 10.0 mi WNW 5.8 mph - N/A   Clear
1:53 AM 61.0 °F - 37.9 °F 42% 29.96 in 10.0 mi NW 4.6 mph - N/A   Clear
2:53 AM 57.0 °F - 39.0 °F 51% 29.96 in 10.0 mi North 5.8 mph - N/A   Clear
3:53 AM 59.0 °F - 37.9 °F 46% 29.96 in 10.0 mi North 8.1 mph - N/A   Clear
4:53 AM 64.9 °F - 39.0 °F 39% 29.95 in 10.0 mi North 12.7 mph - N/A   Clear
5:53 AM 64.0 °F - 39.0 °F 40% 29.94 in 10.0 mi North 12.7 mph - N/A   Clear
6:53 AM 66.9 °F - 39.9 °F 37% 29.96 in 10.0 mi North 11.5 mph - N/A   Clear
7:53 AM 70.0 °F - 43.0 °F 38% 29.96 in 10.0 mi North 8.1 mph - N/A   Clear
8:53 AM 75.9 °F - 43.0 °F 31% 29.96 in 10.0 mi North 16.1 mph - N/A   Clear
9:53 AM 79.0 °F - 44.1 °F 29% 29.94 in 10.0 mi North 15.0 mph - N/A   Clear
10:53 AM 84.9 °F - 44.1 °F 24% 29.93 in 10.0 mi North 10.4 mph - N/A   Clear
11:53 AM 90.0 °F - 42.1 °F 19% 29.91 in 10.0 mi North 9.2 mph - N/A   Clear
12:53 PM 93.0 °F - 39.0 °F 15% 29.90 in 10.0 mi NE 5.8 mph - N/A   Clear
1:53 PM 93.0 °F - 41.0 °F 16% 29.88 in 10.0 mi Variable 3.5 mph - N/A   Clear
2:30 PM 93.0 °F - 39.9 °F 16% 29.91 in 10.0 mi SSW 8.1 mph - N/A Thunderstorm Clear
2:41 PM 89.1 °F - 45.0 °F 22% 29.91 in 10.0 mi South 17.3 mph 21.9 mph N/A Thunderstorm Thunderstorm
2:53 PM 84.0 °F 82.6 °F 54.0 °F 35% 29.90 in 10.0 mi South 9.2 mph - 0.00 in Rain , Thunderstorm Light Thunderstorms and Rain
3:04 PM 86.0 °F 84.0 °F 53.1 °F 32% 29.92 in 10.0 mi SSW 5.8 mph - 0.00 in   Partly Cloudy
3:53 PM 91.0 °F - 44.1 °F 20% 29.88 in 10.0 mi SSW 6.9 mph - 0.00 in   Clear
4:53 PM 93.9 °F - 45.0 °F 18% 29.86 in 10.0 mi WSW 8.1 mph - N/A   Clear
5:53 PM 93.9 °F - 43.0 °F 17% 29.86 in 10.0 mi Calm Calm - N/A   Clear
6:53 PM 93.0 °F - 41.0 °F 16% 29.85 in 10.0 mi West 3.5 mph - N/A   Clear
7:53 PM 86.0 °F - 42.1 °F 21% 29.85 in 10.0 mi West 5.8 mph - N/A   Clear
8:53 PM 79.0 °F - 46.9 °F 32% 29.86 in 10.0 mi NW 9.2 mph - N/A   Clear
9:53 PM 78.1 °F - 48.0 °F 35% 29.87 in 10.0 mi WNW 12.7 mph - N/A   Clear
10:53 PM 75.9 °F - 46.9 °F 36% 29.87 in 10.0 mi NW 8.1 mph - N/A   Clear
11:53 PM 71.1 °F - 46.0 °F 41% 29.88 in 10.0 mi NW 5.8 mph - N/A   Clear